Regional Weather Roundup
Issued by NWS

Current Version | Previous Version | Text Only | Print | Product List | Glossary On
Versions: 1 2 3 4 5 6 7 8 9 10 11 12 13 14 15 16 17 18 19 20 21 22 23 24 25 26 27 28 29 30 31 32 33 34 35 36 37 38 39 40 41 42 43 44 45 46 47 48 49 50
000
ASUS43 KMKX 042221
RWRWI

WISCONSIN REGIONAL WEATHER ROUNDUP
NATIONAL WEATHER SERVICE MILWAUKEE/SULLIVAN WI
500 PM CDT SAT JUL 04 2015

NOTE: "FAIR" INDICATES FEW OR NO CLOUDS BELOW 12,000 FEET WITH NO
SIGNIFICANT WEATHER AND/OR OBSTRUCTIONS TO VISIBILITY.

WIZ001-002-006>008-014>016-023>028-042300-
NORTHWEST WISCONSIN

CITY           SKY/WX    TMP DP  RH WIND       PRES   REMARKS
SUPERIOR ARPT  SUNNY     67  60  77 E8        29.94S
ASHLAND        SUNNY     72  63  73 N9        29.94F
HAYWARD        SUNNY     81  58  45 S7        29.94F HX  81
SIREN          SUNNY     83  58  42 SW7       29.92F HAZE    HX  83
CUMBERLAND     MOSUNNY   79  59  50 S8        29.94F HX  80
RICE LAKE      SUNNY     82  59  46 S6        29.95F HAZE    HX  82
CHETEK         NOT AVBL
LADYSMITH      MOSUNNY   80  62  54 S6        29.97S HX  81
EAU CLAIRE     PTSUNNY   83  64  52 SW7       29.93F HAZE    HX  84
MENOMONIE      SUNNY     82  63  52 S7        29.93F HAZE    HX  83
NEW RICHMOND   MOSUNNY   81  64  55 SW7       29.94S HAZE    HX  83
OSCEOLA        MOSUNNY   83  65  55 S6        29.95S HAZE    HX  85
$$

WIZ003>005-009-010-017-018-042300-
NORTH CENTRAL WISCONSIN

CITY           SKY/WX    TMP DP  RH WIND       PRES   REMARKS
MANITOWISH WTR PTSUNNY   78  58  49 SE3       29.97F
ARBOR VITAE    PTSUNNY   79  56  44 CALM      29.98F HX  80
WOODRUFF       PTSUNNY   79  56  44 CALM      29.98F HX  80
RHINELANDER    PTSUNNY   80  53  39 NW5       29.99S HX  80
EAGLE RIVER    PTSUNNY   79  52  38 W5        29.98S
LAND O LAKES   PTSUNNY   79  54  41 CALM      29.99S
PHILLIPS       MOSUNNY   80  59  48 SW3       29.96S HX  80
TOMAHAWK       MOSUNNY   79  56  45 CALM      29.98S HX  80
MEDFORD        MOSUNNY   80  58  46 SW7       29.97F HX  80
MERRILL        MOSUNNY   81  58  44 S6        29.97F HX  81
$$

WIZ029-030-035-036-043>047-042300-
CENTRAL WISCONSIN

CITY           SKY/WX    TMP DP  RH WIND       PRES   REMARKS
WAUSAU         MOSUNNY   82  55  39 SW8       29.96R HAZE    HX  81
MOSINEE        SUNNY     81  61  50 S3        29.98F HX  81
MARSHFIELD     MOSUNNY   82  62  50 S6        29.96F HAZE    HX  83
STEVENS POINT  MOSUNNY   80  59  47 CALM      29.97S HX  81
WAUPACA        MOSUNNY   83  63  49 S5        29.96S HX  84
WAUTOMA        SUNNY     84  63  49 S7        29.97S HX  85
WISC RAPIDS    SUNNY     82  61  48 SW8       29.97F HX  83
CAMP DOUGLAS   SUNNY     82  67  60 SW8       29.96S HX  84
$$

WIZ011>013-019>022-031-037>040-048>050-042300-
NORTHEAST WISCONSIN

CITY           SKY/WX    TMP DP  RH WIND       PRES   REMARKS
ANTIGO         CLOUDY    78  63  59 SE7       29.98F HX  80
SHAWANO        MOSUNNY   83  61  47 SE5       29.97S HX  84
OCONTO         MOSUNNY   77  64  64 SE9       29.97S
STURGEON BAY   MOSUNNY   72  59  64 SE8       30.01S
GREEN BAY      MOSUNNY   80  66  62 E8        29.97S HX  82
MANITOWOC      MOSUNNY   68  63  84 MISG      30.00R
APPLETON       PTSUNNY   79  61  53 SW7       29.98S HX  80
CLINTONVILLE   PTSUNNY   82  59  44 S6        29.96S HX  82
OSHKOSH        MOSUNNY   81  64  56 S6        29.97S HX  82
$$

WIZ032>034-041-042-053>061-042300-
SOUTHWEST WISCONSIN

CITY           SKY/WX    TMP DP  RH WIND       PRES   REMARKS
LA CROSSE      MOSUNNY   83  63  50 SW13      29.95S HX  84
SPARTA         SUNNY     83  59  44 SW7       29.97S HX  83
VIROQUA        SUNNY     79  62  56 SW8       30.00S HX  80
BOSCOBEL       SUNNY     83  61  47 W6        29.98S HX  83
PRAIRIE DU CHI SUNNY     80  59  49 SW7       29.97S HX  81
PLATTEVILLE    SUNNY     80  59  49 W7        30.00S HX  80
$$

WIZ056-057-062-063-064-067-068-042300-
SOUTH CENTRAL WISCONSIN

CITY           SKY/WX    TMP DP  RH WIND       PRES   REMARKS
REEDSBURG      SUNNY     80  62  53 SW8       29.97S HX  81
BARABOO/DELLS  MOSUNNY   80  59  48 SW7       29.98S HX  81
LONE ROCK      SUNNY     81  59  47 SW7       29.98S HX  81
MINERAL POINT  MOSUNNY   81  57  44 W6        30.00F HX  81
MADISON        MOSUNNY   81  60  48 W6        29.98S HX  82
MIDDLETON      MOSUNNY   82  58  45 W9        29.99S HX  82
WATERTOWN      MOSUNNY   80  63  56 W6        29.98S HX  81
MONROE         MOSUNNY   79  59  50 SW8       30.00S HX  80
JANESVILLE     PTSUNNY   81  61  50 SW7       29.99S HX  81
$$

WIZ051-052-058>065-066-070>072-042300-
SOUTHEAST WISCONSIN

CITY           SKY/WX    TMP DP  RH WIND       PRES   REMARKS
MILWAUKEE      MOSUNNY   77  61  57 SE12      29.98S
WAUKESHA       PTSUNNY   79  61  53 SW6       30.00S HX  80
MILWAUKEE/TIMM PTSUNNY   81  55  41 W5        29.99R HX  80
RACINE         SUNNY     76  56  49 S12       30.01S
BURLINGTON     SUNNY     78  58  51 SW6       29.99S
KENOSHA        SUNNY     79  60  52 S9        29.99S HX  80
FOND DU LAC    SUNNY     82  63  52 SW6       29.98S HX  83
SHEBOYGAN      PTSUNNY   77  62  59 SE8       29.98S
WEST BEND      CLOUDY    79  59  50 SW6       29.99R HX  80
JUNEAU         SUNNY     79  62  57 S7        30.00S HX  80
$$

LSZ147-162-042300-
LAKE SUPERIOR

STATION/POSITION TIME  TEMP    WIND        PRES    WAVE
                       AIR SEA DIR/SP/G            HT/PER
                 (UTC) (F)     (DEG/KT/KT) (MB)    (FT/S)
W MID LAKE BUOY  2150   43 39   70/  6/  8 1014.9F   0
DEVILS ISLAND    2200   57      80/ 11/ 13 1014.3F
SAXON HARBOR     2140   65        CALM     1013.9F
$$

LMZ867-665-643>646-042300-
LAKE MICHIGAN

STATION/POSITION TIME  TEMP    WIND        PRES    WAVE
                       AIR SEA DIR/SP/G            HT/PER
                 (UTC) (F)     (DEG/KT/KT) (MB)    (FT/S)
CHAMBERS ISLAND  2100   72      80/  5/  7 1015.2F
S GREEN BAY BUOY 2100   70 70   60/ 10/ 14 1016.3F
N MID LAKE BUOY  2150   61 49   CALM  /  2 1015.6S   0
NORTHPORT PIER   2100   64     140/  6/  7 1015.2F
SISTER BAY       2114   76     150/  7/ 10   N/A
ALGOMA LAKESHORE 2140             CALM       N/A
KEWAUNEE LAKESHO 2100   63      40/  4/  6 1015.1R
SHEBOYGAN LAKESH 2200   65     160/ 11/ 13 1015.7R
PORT WASHINGTON  2140   70     190/  4/  8 1015.9S
ATWATER BUOY     2100   65 62  150/ 10/ 12 1016.5F
MILWAUKEE LAKESH 2100   65     140/ 14/ 15   N/A
KENOSHA   LAKESH 2200   68     180/  9/ 12 1015.2S
$$

TC  - TEMPERATURE IN CELSIUS
VSB - VISIBILITY IN STATUTE MILES
WCI - WIND CHILL INDEX
HX  - HEAT INDEX



USA.gov is the U.S. government's official web portal to all federal, state and local government web resources and services.